GW2699 Weather Reports


time (UTC)temp
C
wind
direction
speed
KPH
gust
KPH
rain 1hr
cm
rain 24hr
cm
rain mn
cm
humidity
%
barometer
mb
20260507081554 9 0 0.0 0.0 0.00 0.79 0.00 85 1005.8
20260507081042 10 0 0.0 6.4 0.00 0.79 0.00 84 1005.9
20260507080543 10 0 0.0 6.4 0.00 0.79 0.00 84 1006.2
20260507080052 10 0 1.6 6.4 0.00 0.79 0.00 83 1006.1
20260507075542 10 265 1.6 6.4 0.00 0.79 0.00 84 1005.9
20260507075042 10 0 0.0 6.4 0.00 0.79 0.00 84 1005.9
20260507074601 10 294 1.6 11.3 0.00 0.79 0.00 84 1005.8
20260507074040 10 0 1.6 11.3 0.00 0.79 0.00 84 1005.7
20260507073547 10 321 1.6 6.4 0.00 0.79 0.00 85 1005.7
20260507073049 10 0 0.0 8.0 0.00 0.79 0.00 85 1005.7
20260507072543 10 0 1.6 8.0 0.00 0.79 0.00 85 1005.7
20260507072042 10 0 0.0 8.0 0.00 0.79 0.00 85 1005.5
20260507071546 10 309 3.2 11.3 0.00 0.79 0.00 85 1005.8
20260507071043 10 321 3.2 11.3 0.00 0.79 0.00 84 1005.8
20260507070543 10 294 1.6 17.7 0.00 0.79 0.00 85 1005.5
20260507070048 10 22 1.6 17.7 0.00 0.79 0.00 85 1005.4
20260507065542 10 261 1.6 14.5 0.00 0.79 0.00 84 1005.7
20260507065042 10 194 3.2 14.5 0.00 0.79 0.00 85 1005.6
20260507064550 10 280 1.6 14.5 0.00 0.79 0.00 85 1005.5
20260507064042 10 0 3.2 14.5 0.00 0.79 0.00 86 1005.3
20260507063542 10 279 0.0 8.0 0.00 0.79 0.00 86 1005.2
20260507063051 10 0 1.6 11.3 0.00 0.79 0.00 87 1005.4
20260507062543 10 166 1.6 11.3 0.00 0.79 0.00 87 1005.2
20260507062044 10 246 1.6 11.3 0.00 0.79 0.00 87 1005.3
20260507061548 10 0 0.0 11.3 0.00 0.79 0.00 87 1005.5
20260507061044 10 204 1.6 9.7 0.00 0.79 0.00 87 1005.5
20260507060542 10 175 1.6 8.0 0.00 0.79 0.00 86 1005.6
20260507060048 10 0 1.6 8.0 0.00 0.79 0.00 87 1005.5
20260507055543 10 0 1.6 8.0 0.00 0.79 0.00 87 1005.5
20260507055045 11 181 0.0 12.9 0.00 0.79 0.00 87 1005.5
20260507054607 11 144 3.2 12.9 0.00 0.79 0.00 87 1005.5
20260507054042 11 182 0.0 8.0 0.00 0.79 0.00 87 1005.2
20260507053545 11 221 1.6 8.0 0.00 0.79 0.00 87 1005.4
20260507053053 11 0 1.6 9.7 0.00 0.79 0.00 87 1005.5
20260507052542 11 0 1.6 9.7 0.00 0.79 0.00 87 1005.4
20260507052042 11 261 3.2 11.3 0.00 0.79 0.00 87 1005.4
20260507051550 11 279 1.6 11.3 0.00 0.79 0.00 86 1005.1
20260507051048 11 217 0.0 9.7 0.00 0.79 0.00 87 1005.1
20260507050543 11 274 3.2 9.7 0.00 0.79 0.00 87 1005.0
20260507050056 11 0 1.6 8.0 0.00 0.79 0.00 87 1005.1
20260507045544 11 215 0.0 11.3 0.00 0.79 0.00 87 1005.3
20260507045043 11 278 1.6 12.9 0.00 0.79 0.00 87 1005.2
20260507044554 12 0 3.2 12.9 0.00 0.79 0.00 87 1005.2
20260507044042 12 211 1.6 9.7 0.00 0.79 0.00 88 1005.3
20260507043542 12 204 1.6 9.7 0.00 0.79 0.00 88 1005.4
20260507043053 12 225 1.6 12.9 0.00 0.79 0.00 88 1005.3
20260507042543 12 248 3.2 12.9 0.00 0.79 0.00 87 1005.2
20260507042043 12 247 0.0 11.3 0.00 0.79 0.00 87 1005.0
20260507041600 12 210 1.6 11.3 0.00 0.79 0.00 87 1005.0
20260507041043 12 0 3.2 14.5 0.00 0.79 0.00 87 1005.1
20260507040543 12 254 4.8 14.5 0.00 0.79 0.00 87 1005.2
20260507040051 12 242 1.6 8.0 0.00 0.79 0.00 87 1004.9
20260507035543 12 257 1.6 9.7 0.00 0.79 0.79 86 1004.7
20260507035043 13 294 1.6 9.7 0.00 0.79 0.79 86 1004.5
20260507034556 13 297 1.6 6.4 0.00 0.79 0.79 85 1004.5
20260507034042 13 319 1.6 11.3 0.00 0.79 0.79 86 1004.5
20260507033543 13 248 3.2 20.9 0.00 0.79 0.79 87 1004.5
20260507033100 13 230 3.2 20.9 0.00 0.79 0.79 88 1004.7
20260507032543 13 309 3.2 19.3 0.00 0.79 0.79 88 1004.8
20260507032042 14 340 4.8 19.3 0.00 0.79 0.79 89 1004.7
20260507031601 15 325 4.8 17.7 0.00 0.79 0.79 90 1004.7
20260507031042 15 315 1.6 17.7 0.00 0.79 0.79 93 1004.4
20260507030541 15 319 3.2 17.7 0.00 0.79 0.79 93 1004.2
20260507030054 15 342 4.8 19.3 0.00 0.79 0.79 94 1004.2
20260507025541 15 279 4.8 19.3 0.00 0.79 0.79 94 1004.2
20260507025041 15 0 1.6 6.4 0.00 0.79 0.79 94 1003.9
20260507024548 15 197 0.0 6.4 0.00 0.79 0.79 94 1003.9
20260507024115 15 239 1.6 8.0 0.00 0.79 0.79 94 1003.9
20260507023541 15 0 0.0 8.0 0.00 0.79 0.79 94 1003.8
20260507023051 15 192 1.6 8.0 0.00 0.79 0.79 94 1004.0
20260507022542 15 189 1.6 8.0 0.00 0.79 0.79 94 1003.9
20260507022042 15 183 3.2 6.4 0.00 0.79 0.79 94 1003.7
20260507021549 15 229 1.6 6.4 0.00 0.79 0.79 94 1003.7
20260507021044 15 226 1.6 6.4 0.00 0.79 0.79 94 1003.9
20260507020542 15 217 1.6 8.0 0.00 0.79 0.79 94 1003.9
20260507020048 15 217 1.6 8.0 0.00 0.79 0.79 93 1004.0
20260507015541 15 183 1.6 8.0 0.00 0.79 0.79 94 1004.0
20260507015041 15 213 1.6 11.3 0.00 0.79 0.79 94 1004.1
20260507014600 15 215 1.6 11.3 0.00 0.79 0.79 94 1004.2
20260507014042 15 205 0.0 9.7 0.00 0.79 0.79 94 1004.2
20260507013543 15 207 1.6 9.7 0.00 0.79 0.79 94 1004.2
20260507013047 15 0 0.0 6.4 0.00 0.79 0.79 94 1004.1
20260507012542 15 0 0.0 4.8 0.00 0.79 0.79 93 1004.2
20260507012041 15 205 1.6 8.0 0.00 0.79 0.79 94 1004.2
20260507011548 15 180 3.2 8.0 0.00 0.79 0.79 93 1004.3
20260507011042 15 213 0.0 8.0 0.00 0.79 0.79 94 1004.2
20260507010542 15 0 3.2 9.7 0.00 0.79 0.79 94 1004.3
20260507010048 15 203 3.2 9.7 0.00 0.79 0.79 94 1004.3
20260507005542 15 254 0.0 11.3 0.03 0.79 0.79 94 1004.1
20260507005041 15 244 0.0 11.3 0.03 0.79 0.79 94 1004.2
20260507004550 15 200 3.2 9.7 0.03 0.79 0.79 94 1004.3
20260507004042 15 215 1.6 8.0 0.03 0.79 0.79 94 1004.3
20260507003546 15 201 1.6 12.9 0.05 0.79 0.79 94 1004.0
20260507003050 15 184 3.2 12.9 0.05 0.79 0.79 94 1004.2
20260507002541 15 248 0.0 6.4 0.05 0.79 0.79 94 1004.1
20260507002042 15 206 0.0 9.7 0.08 0.79 0.79 94 1004.1
20260507001548 15 178 0.0 12.9 0.08 0.79 0.79 94 1004.1
20260507001042 15 198 1.6 12.9 0.08 0.79 0.79 93 1004.1
20260507000545 15 232 1.6 6.4 0.08 0.79 0.79 93 1004.0
20260507000044 15 176 1.6 8.0 0.08 0.79 0.79 94 1004.1
20260506235542 15 176 1.6 8.0 0.05 0.76 0.76 94 1004.0
20260506235046 15 182 1.6 8.0 0.05 0.76 0.76 93 1004.0
20260506234546 15 49 1.6 8.0 0.05 0.76 0.76 93 1004.0
20260506234045 15 205 0.0 6.4 0.05 0.76 0.76 93 1004.0
20260506233541 15 192 1.6 6.4 0.03 0.74 0.74 93 1003.9
20260506233107 15 220 1.6 6.4 0.03 0.74 0.74 93 1004.1
20260506232542 15 53 3.2 11.3 0.00 0.71 0.71 93 1004.1
20260506232042 15 177 1.6 11.3 0.00 0.71 0.71 93 1004.2
20260506231549 15 200 1.6 9.7 0.00 0.71 0.71 93 1004.3
20260506231045 15 224 1.6 6.4 0.00 0.71 0.71 93 1004.4
20260506230544 15 111 0.0 4.8 0.03 0.71 0.71 93 1004.3
20260506230049 15 173 0.0 4.8 0.03 0.71 0.71 93 1004.3
20260506225543 15 0 0.0 6.4 0.05 0.71 0.71 93 1004.2
20260506225043 15 0 1.6 8.0 0.08 0.71 0.71 93 1004.3
20260506224554 15 226 3.2 11.3 0.10 0.71 0.71 93 1004.4
20260506224042 15 215 1.6 11.3 0.10 0.71 0.71 93 1004.4
20260506223542 15 192 3.2 11.3 0.10 0.71 0.71 93 1004.4
20260506223052 15 252 1.6 11.3 0.10 0.71 0.71 93 1004.4
20260506222543 15 171 3.2 11.3 0.13 0.71 0.71 93 1004.5
20260506222043 15 200 4.8 11.3 0.15 0.71 0.71 93 1004.5
20260506221548 15 184 1.6 9.7 0.15 0.71 0.71 93 1004.5
20260506221042 15 204 1.6 14.5 0.18 0.71 0.71 93 1004.5
20260506220543 15 188 0.0 14.5 0.18 0.69 0.69 93 1004.6
20260506220049 15 180 0.0 8.0 0.18 0.69 0.69 93 1004.7
20260506215546 16 0 1.6 8.0 0.18 0.66 0.66 93 1004.8
20260506215043 16 203 1.6 8.0 0.18 0.64 0.64 93 1004.9
20260506214551 16 190 1.6 8.0 0.18 0.61 0.61 93 1004.9
20260506214042 16 206 1.6 17.7 0.20 0.61 0.61 92 1004.9
20260506213543 16 139 3.2 17.7 0.25 0.61 0.61 92 1004.8
20260506213102 16 202 3.2 12.9 0.28 0.61 0.61 92 1004.9
20260506212543 16 208 3.2 12.9 0.28 0.58 0.58 92 1004.9
20260506212043 16 50 1.6 11.3 0.25 0.56 0.56 92 1005.0
20260506211548 16 132 4.8 11.3 0.25 0.53 0.53 92 1005.1
20260506211042 16 169 1.6 11.3 0.28 0.53 0.53 92 1005.1
20260506210543 16 213 4.8 11.3 0.25 0.51 0.51 92 1005.1
20260506210049 16 194 3.2 8.0 0.28 0.51 0.51 92 1005.1
20260506205544 16 203 1.6 9.7 0.23 0.46 0.46 92 1005.1
20260506205043 16 248 1.6 9.7 0.23 0.46 0.46 92 1005.1
20260506204552 16 197 1.6 8.0 0.23 0.43 0.43 92 1005.1
20260506204043 16 0 1.6 8.0 0.20 0.41 0.41 92 1005.3
20260506203545 16 229 1.6 8.0 0.15 0.36 0.36 91 1005.3
20260506203049 16 142 0.0 9.7 0.13 0.33 0.33 91 1005.3
20260506202545 16 0 0.0 9.7 0.13 0.30 0.30 91 1005.3
20260506202044 16 0 3.2 9.7 0.13 0.30 0.30 91 1005.3
20260506201546 16 0 1.6 8.0 0.13 0.28 0.28 91 1005.2
20260506201043 16 186 1.6 8.0 0.10 0.25 0.25 91 1005.2
20260506200543 17 0 0.0 3.2 0.10 0.25 0.25 91 1005.1
20260506200045 17 0 0.0 4.8 0.08 0.23 0.23 91 1005.1
20260506195543 17 0 0.0 4.8 0.10 0.23 0.23 90 1005.2
20260506195043 17 157 0.0 4.8 0.13 0.23 0.23 90 1005.3
20260506194555 17 121 0.0 0.0 0.13 0.20 0.20 90 1005.2
20260506194045 17 0 0.0 4.8 0.15 0.20 0.20 90 1005.4
20260506193542 17 0 0.0 4.8 0.15 0.20 0.20 90 1005.2
20260506193048 17 130 0.0 6.4 0.15 0.20 0.20 90 1005.4
20260506192542 17 136 1.6 8.0 0.15 0.18 0.18 89 1005.6
20260506192043 17 0 1.6 8.0 0.18 0.18 0.18 88 1005.7
20260506191549 17 242 0.0 4.8 0.15 0.15 0.15 88 1005.7
20260506191043 17 205 0.0 4.8 0.15 0.15 0.15 88 1005.5
20260506190543 17 0 0.0 6.4 0.15 0.15 0.15 88 1005.9
20260506190051 17 0 0.0 6.4 0.13 0.13 0.13 88 1005.9
20260506185543 17 0 0.0 6.4 0.13 0.13 0.13 87 1006.1
20260506185041 17 0 1.6 6.4 0.10 0.10 0.10 86 1006.0
20260506184550 17 0 0.0 0.0 0.08 0.08 0.08 85 1005.8
20260506184043 17 0 0.0 4.8 0.05 0.05 0.05 84 1005.5
20260506183544 17 0 0.0 6.4 0.05 0.05 0.05 80 1005.5
20260506183049 18 167 3.2 8.0 0.05 0.05 0.05 78 1005.6
20260506182544 18 171 1.6 8.0 0.03 0.03 0.03 74 1005.7
20260506182042 19 193 1.6 19.3 0.00 0.00 0.00 70 1005.7
20260506181552 20 167 4.8 22.5 0.00 0.00 0.00 67 1005.6
20260506181043 20 132 8.0 22.5 0.00 0.00 0.00 66 1005.5
20260506180546 20 275 4.8 16.1 0.00 0.00 0.00 65 1005.3
20260506175543 20 80 4.8 17.7 0.00 0.00 0.00 64 1005.4
20260506175044 20 192 6.4 17.7 0.00 0.00 0.00 64 1005.5
20260506174555 20 204 6.4 14.5 0.00 0.00 0.00 64 1005.5
20260506174043 20 0 1.6 12.9 0.00 0.00 0.00 65 1005.6
20260506173541 20 219 3.2 12.9 0.00 0.00 0.00 64 1005.5
20260506173056 20 261 4.8 14.5 0.00 0.00 0.00 64 1005.8
20260506172542 20 225 3.2 16.1 0.00 0.00 0.00 65 1005.7
20260506172043 20 173 3.2 16.1 0.00 0.00 0.00 64 1005.8
20260506171558 20 100 6.4 16.1 0.00 0.00 0.00 64 1005.9
20260506171047 21 86 4.8 14.5 0.00 0.00 0.00 63 1005.8
20260506170545 21 112 3.2 12.9 0.00 0.00 0.00 65 1005.9
20260506165543 21 135 1.6 12.9 0.00 0.00 0.00 64 1006.1
20260506165043 21 0 3.2 12.9 0.00 0.00 0.00 63 1006.1
20260506164551 21 103 3.2 16.1 0.00 0.00 0.00 61 1006.2
20260506164047 21 187 3.2 16.1 0.00 0.00 0.00 62 1006.3
20260506163546 22 183 4.8 14.5 0.00 0.00 0.00 61 1006.5
20260506163111 22 288 3.2 16.1 0.00 0.00 0.00 61 1006.4
20260506162543 21 255 4.8 16.1 0.00 0.00 0.00 63 1006.5
20260506162046 21 171 4.8 16.1 0.00 0.00 0.00 63 1006.6
20260506161606 21 220 4.8 12.9 0.00 0.00 0.00 62 1006.8
20260506161044 21 256 1.6 16.1 0.00 0.00 0.00 65 1007.0
20260506160544 21 200 6.4 20.9 0.00 0.00 0.00 61 1007.1
20260506160050 21 222 3.2 20.9 0.00 0.00 0.00 64 1007.2
20260506155545 21 128 4.8 20.9 0.00 0.00 0.00 64 1007.3
20260506155043 21 231 3.2 11.3 0.00 0.00 0.00 64 1007.4
20260506154608 21 215 4.8 19.3 0.00 0.00 0.00 63 1007.5
20260506154044 21 180 4.8 22.5 0.00 0.00 0.00 65 1007.6
20260506153544 21 265 6.4 22.5 0.00 0.00 0.00 63 1007.6
20260506153059 21 203 6.4 20.9 0.00 0.00 0.00 63 1007.7
20260506152544 21 232 1.6 14.5 0.00 0.00 0.00 67 1007.8
20260506152043 21 293 3.2 14.5 0.00 0.00 0.00 66 1007.6
20260506151548 21 205 4.8 12.9 0.00 0.00 0.00 65 1007.5
20260506151045 21 200 4.8 11.3 0.00 0.00 0.00 66 1007.7
20260506150544 20 185 1.6 11.3 0.00 0.00 0.00 67 1007.9
20260506150052 20 232 3.2 9.7 0.00 0.00 0.00 67 1007.8
20260506145544 20 130 1.6 12.9 0.00 0.00 0.00 66 1007.7
20260506145043 20 204 3.2 14.5 0.00 0.00 0.00 65 1007.6
20260506144553 21 242 4.8 14.5 0.00 0.00 0.00 66 1007.6
20260506144044 21 174 4.8 14.5 0.00 0.00 0.00 66 1007.5
20260506143544 20 248 4.8 17.7 0.00 0.00 0.00 67 1007.7
20260506143104 20 206 3.2 17.7 0.00 0.00 0.00 68 1007.6
20260506142544 20 202 6.4 17.7 0.00 0.00 0.00 67 1007.5
20260506142043 20 227 4.8 17.7 0.00 0.00 0.00 67 1007.5
20260506141550 20 0 3.2 17.7 0.00 0.00 0.00 72 1007.5
20260506141046 20 211 4.8 17.7 0.00 0.00 0.00 69 1007.6
20260506140543 19 232 4.8 17.7 0.00 0.00 0.00 69 1007.6
20260506140100 19 238 3.2 17.7 0.00 0.00 0.00 69 1007.7
20260506135544 19 200 3.2 11.3 0.00 0.00 0.00 70 1007.8
20260506135044 19 160 3.2 11.3 0.00 0.00 0.00 71 1007.8
20260506134551 19 150 4.8 14.5 0.00 0.00 0.00 71 1008.0
20260506134045 19 120 3.2 14.5 0.00 0.00 0.00 71 1008.1
20260506133544 19 194 4.8 14.5 0.00 0.00 0.00 70 1008.1
20260506133049 19 107 3.2 12.9 0.00 0.00 0.00 70 1008.1
20260506132543 19 0 4.8 12.9 0.00 0.00 0.00 71 1008.1
20260506132043 19 190 3.2 14.5 0.00 0.00 0.00 70 1008.0
20260506131551 19 227 4.8 14.5 0.00 0.00 0.00 71 1008.1
20260506131043 18 194 3.2 14.5 0.00 0.00 0.00 71 1008.1
20260506130543 18 213 1.6 11.3 0.00 0.00 0.00 71 1008.2
20260506130043 18 186 3.2 11.3 0.00 0.00 0.00 71 1008.1
20260506125546 18 192 3.2 11.3 0.00 0.00 0.00 71 1008.1
20260506125047 18 196 3.2 12.9 0.00 0.00 0.00 71 1008.1
20260506124543 18 213 4.8 12.9 0.00 0.00 0.00 71 1008.0
20260506124044 18 184 3.2 14.5 0.00 0.00 0.00 71 1008.1
20260506123544 18 106 1.6 14.5 0.00 0.00 0.00 70 1008.0
20260506123048 18 200 3.2 14.5 0.00 0.00 0.00 72 1008.2
20260506122541 18 267 3.2 12.9 0.00 0.00 0.00 72 1008.2
20260506122044 18 207 4.8 12.9 0.00 0.00 0.00 72 1008.2
20260506121546 17 195 1.6 12.9 0.00 0.00 0.00 74 1008.2
20260506121044 17 223 3.2 12.9 0.00 0.00 0.00 73 1008.2
20260506120542 17 213 1.6 14.5 0.00 0.00 0.00 73 1008.3
20260506120056 17 0 0.0 14.5 0.00 0.00 0.00 74 1008.4
20260506115543 17 175 3.2 14.5 0.00 0.00 0.00 73 1008.4
20260506115043 17 0 1.6 12.9 0.00 0.00 0.00 73 1008.5
20260506114553 17 267 4.8 12.9 0.00 0.00 0.00 72 1008.5
20260506114047 17 198 1.6 16.1 0.00 0.00 0.00 74 1008.5
20260506113545 17 195 3.2 16.1 0.00 0.00 0.00 73 1008.5
20260506113044 17 331 4.8 16.1 0.00 0.00 0.00 74 1008.6
20260506112544 17 0 1.6 8.0 0.00 0.00 0.00 74 1008.5
20260506112046 17 230 1.6 8.0 0.00 0.00 0.00 74 1008.6
20260506111549 17 205 3.2 8.0 0.00 0.00 0.00 74 1008.7
20260506111044 17 196 1.6 8.0 0.00 0.00 0.00 74 1008.7
20260506110544 16 196 0.0 8.0 0.00 0.00 0.00 74 1008.6
20260506110058 16 212 1.6 6.4 0.00 0.00 0.00 75 1008.8
20260506105544 16 144 0.0 9.7 0.00 0.00 0.00 75 1008.8
20260506105042 16 0 0.0 9.7 0.00 0.00 0.00 75 1008.8
20260506104546 16 99 0.0 8.0 0.00 0.00 0.00 75 1008.6
20260506104043 16 0 1.6 8.0 0.00 0.00 0.00 74 1008.6
20260506103543 16 232 1.6 8.0 0.00 0.00 0.00 75 1008.6
20260506103059 16 0 0.0 9.7 0.00 0.00 0.00 75 1008.7
20260506102544 16 216 3.2 9.7 0.00 0.00 0.00 74 1008.6
20260506102044 16 252 1.6 9.7 0.00 0.00 0.00 75 1008.5
20260506101603 16 188 0.0 8.0 0.00 0.00 0.00 75 1008.7
20260506101047 16 0 1.6 6.4 0.00 0.00 0.00 74 1008.8
20260506100543 16 214 1.6 8.0 0.00 0.00 0.00 74 1008.6
20260506100055 16 0 0.0 11.3 0.00 0.00 0.00 74 1008.7
20260506095547 16 207 3.2 16.1 0.00 0.00 0.00 73 1008.6
20260506095045 16 213 3.2 16.1 0.00 0.00 0.00 73 1008.5
20260506094616 16 320 3.2 14.5 0.00 0.00 0.00 74 1008.5
20260506094043 16 0 3.2 14.5 0.00 0.00 0.00 73 1008.6
20260506093543 16 193 3.2 14.5 0.00 0.00 0.00 73 1008.6
20260506093053 16 0 3.2 12.9 0.00 0.00 0.00 73 1008.6
20260506092545 16 224 3.2 12.9 0.00 0.00 0.00 73 1008.5
20260506092044 16 232 3.2 12.9 0.00 0.00 0.00 73 1008.4
20260506091556 16 197 1.6 14.5 0.00 0.00 0.00 72 1008.4
20260506091043 16 0 4.8 14.5 0.00 0.00 0.00 72 1008.5
20260506090543 16 232 3.2 14.5 0.00 0.00 0.00 72 1008.4
20260506090053 16 231 0.0 6.4 0.00 0.00 0.00 72 1008.2
20260506085543 16 0 0.0 6.4 0.00 0.00 0.00 71 1008.3
20260506085043 16 144 1.6 8.0 0.00 0.00 0.00 71 1008.4
20260506084550 16 205 1.6 11.3 0.00 0.00 0.00 70 1008.4
20260506084046 17 0 3.2 11.3 0.00 0.00 0.00 70 1008.3
20260506083544 17 206 3.2 11.3 0.00 0.00 0.00 70 1008.3
20260506083049 17 218 3.2 12.9 0.00 0.00 0.00 70 1008.3
20260506082548 17 233 1.6 12.9 0.00 0.00 0.00 69 1008.3
20260506082044 17 0 0.0 8.0 0.00 0.00 0.00 69 1008.3